Regional Weather Roundup
Issued by NWS

Home | Current Version | Previous Version | Graphics & Text | Print | Product List | Glossary Off
Versions: 1 2 3 4 5 6 7 8 9 10 11 12 13 14 15 16 17 18 19 20 21 22 23 24 25 26 27 28 29 30 31 32 33 34 35 36 37 38 39 40 41 42 43 44 45 46 47 48 49 50

000
ASUS43 KMPX 210310
RWRMN
WEATHER ROUNDUP FOR MINNESOTA
NATIONAL WEATHER SERVICE TWIN CITIES/CHANHASSEN MN
1000 PM CDT FRI APR 20 2018


NOTE: "FAIR" INDICATES FEW OR NO CLOUDS BELOW 12,000 FEET WITH NO
SIGNIFICANT WEATHER AND/OR OBSTRUCTIONS TO VISIBILITY. N/A MEANS
CURRENT SKY AND/OR WEATHER CONDITIONS ARE NOT AVAILABLE.

MNZ060>063-068>070-210400-
   Twin Cities Metro

CITY           SKY/WX    TMP DP  RH WIND       PRES   REMARKS
TWIN CITIES    MOCLDY    46  24  42 SW3       30.44S
ST PAUL        FAIR      42  29  59 CALM      30.45S
CRYSTAL        FAIR      42  24  49 CALM      30.43S
BLAINE         FAIR      45  25  45 W5        30.44S
LAKEVILLE      FAIR      37  27  65 CALM      30.44S
EDEN PRAIRIE   FAIR      44  25  47 CALM      30.43S
SOUTH ST PAUL  FAIR      44  22  41 CALM      30.44S
LAKE ELMO      FAIR      36  30  80 CALM      30.45S
$$
MNZ001>005-007-008-013>017-022>024-027-028-210400-
   Northwest Minnesota

CITY           SKY/WX    TMP DP  RH WIND       PRES   REMARKS
BEMIDJI        FAIR      45  25  45 SW3       30.37S
HALLOCK        FAIR      43  37  81 S5        30.36R
ROSEAU         FAIR      46  36  66 W5        30.35S
WARROAD        FAIR      45  34  65 W6        30.36R
THIEF RVR FALL FAIR      44  36  73 CALM      30.38R
CROOKSTON      FAIR      45  34  65 S6        30.38R
FOSSTON        FAIR      37  28  70 S5        30.38S
DETROIT LAKES  FAIR      41  23  48 CALM      30.40S
MOORHEAD       FAIR      45  37  76 S9        30.39S
PARK RAPIDS    FAIR      40  25  55 S7        30.39R
MAHNOMEN       FAIR      39  27  60 S9        30.38R
$$
MNZ006-009>011-018-025>026-210400-
   North Central Minnesota

CITY           SKY/WX    TMP DP  RH WIND       PRES   REMARKS
BAUDETTE       FAIR      42  34  73 CALM      30.35S
FLAG ISLAND    FAIR      37  28  70 S3        30.34S
INTL FALLS     FAIR      36  26  67 CALM      30.35R
WASKISH        FAIR      34  28  80 CALM      30.36S
BIG FORK       FAIR      37  21  52 CALM      30.37R
LONGVILLE      FAIR      41  19  42 CALM      30.39R
GRAND RAPIDS   FAIR      44  23  43 S8        30.40R
CRANE LAKE     FAIR      28  19  69 CALM      30.38R
ORR            FAIR      45  12  26 CALM      30.34S
COOK           FAIR      36  23  60 CALM      30.37S
WALKER         FAIR      43  21  41 SW5       30.39R
$$
MNZ012-019>021-037-210400-
   Northeast Minnesota

CITY           SKY/WX    TMP DP  RH WIND       PRES   REMARKS
DULUTH         FAIR      45  24  43 SW8       30.39R
ELY            FAIR      36  19  51 CALM      30.36S
HIBBING        FAIR      33  20  58 SW3       30.37R
EVELETH        FAIR      37  23  56 CALM      30.39R
DULUTH HARBOR  FAIR      46  25  42 SW9       30.41R
TWO HARBORS    FAIR      39  23  52 CALM      30.37S
SILVER BAY     FAIR      36  25  64 CALM      30.37S
GRAND MARAIS     N/A     34  26  72 CALM      30.40S
G MARAIS ARPRT FAIR      41  10  28 CALM      30.39S
$$
MNZ029>031-032-039>041-046>048-054>057-064-210400-
   West Central Minnesota

CITY           SKY/WX    TMP DP  RH WIND       PRES   REMARKS
FERGUS FALLS   FAIR      39  34  81 S5        30.39S
WHEATON        CLOUDY    39  34  81 SE8       30.43R
MORRIS         CLOUDY    39  34  81 S8        30.41S
ALEXANDRIA     FAIR      42  34  73 S7        30.42R
ELBOW LAKE     FAIR      37  34  87 S9        30.42R
WADENA         FAIR      39  27  60 CALM      30.41R
GLENWOOD       FAIR      37  34  87 S6        30.43R
APPLETON       CLOUDY    39  30  70 SE7       30.42S
BENSON         CLOUDY    37  30  75 CALM      30.45R
ORTONVILLE     CLOUDY    36  32  87 SE6       30.41S
MADISON        CLOUDY    37  34  87 SE5       30.42S
WILLMAR        FAIR      37  34  87 CALM      30.46R
$$
MNZ033>034-036-042>043-049>051-058-059-210400-
   Central Minnesota

CITY           SKY/WX    TMP DP  RH WIND       PRES   REMARKS
ST CLOUD       FAIR      38  25  59 CALM      30.43S
SAUK CENTRE    FAIR      36  32  84 S6        30.43S
PAYNESVILLE    FAIR      39  32  76 S3        30.44R
AITKIN         FAIR      39  19  45 S5        30.40R
PINE RIVER     FAIR      36  23  60 CALM      30.43R
BRAINERD       FAIR      39  23  52 S6        30.42R
STAPLES        FAIR      37  21  52 S5        30.41R
LONG PRAIRIE   FAIR      36  30  80 SE6       30.43R
LITTLE FALLS   FAIR      37  19  48 CALM      30.43S
LITCHFIELD     FAIR      39  30  70 CALM      30.44S
BUFFALO        FAIR      38  28  67 CALM      30.45S
MAPLE LAKE     FAIR      35  29  79 CALM      30.45R
HUTCHINSON     FAIR      37  34  89 CALM      30.45S
$$
MNZ037-044-045-052-053-210400-
   East Central Minnesota

CITY           SKY/WX    TMP DP  RH WIND       PRES   REMARKS
PRINCETON      FAIR      36  25  64 CALM      30.44S
MORA           FAIR      36  23  60 CALM      30.44S
CAMBRIDGE      FAIR      37  25  60 CALM      30.44S
RUSH CITY      FAIR      38  26  63 CALM      30.43S
MOOSE LAKE     FAIR      36  19  51 CALM      30.40R
HINCKLEY       FAIR      34  30  86 CALM      30.43R
CLOQUET        FAIR      45  16  31 SW5       30.40R
MCGREGOR       FAIR      39  21  48 CALM      30.41R
$$
MNZ071>073-080-081-089-090-097-098-210400-
   Southwest Minnesota

CITY           SKY/WX    TMP DP  RH WIND       PRES   REMARKS
MONTEVIDEO     CLOUDY    37  28  70 S6        30.43S
GRANITE FALLS  CLOUDY    38  32  80 SE6       30.45R
CANBY          CLOUDY    37  33  87 E3        30.43S
MARSHALL       CLOUDY    37  31  78 SE8       30.43R
REDWOOD FALLS  CLOUDY    37  31  78 S6        30.44R
OLIVIA         CLOUDY    39  32  75 CALM      30.43S
PIPESTONE      CLOUDY   N/A N/A N/A E6        30.40S
WINDOM         CLOUDY    37  19  48 CALM      30.43R
WORTHINGTON    CLOUDY    35  30  82 E5        30.43R WCI  31
JACKSON        CLOUDY    34  30  86 CALM      30.43R
TRACY          CLOUDY    38  32  77 S8        30.42R
SLAYTON        CLOUDY    35  32  88 SE5       30.43R WCI  31
$$
MNZ065>067-074>077-082>085-091>093-210400-
   South Central Minnesota

CITY           SKY/WX    TMP DP  RH WIND       PRES   REMARKS
MANKATO        FAIR      38  28  67 CALM      30.45R
NEW ULM        MOCLDY    39  25  56 CALM      30.44R
ST JAMES       CLOUDY    36  30  80 CALM      30.45R
FAIRMONT       CLOUDY    37  28  70 CALM      30.44R
GLENCOE        FAIR      38  34  83 CALM      30.44S
OWATONNA       FAIR      37  30  75 CALM      30.44R
WASECA         FAIR      36  32  87 CALM      30.45R
ALBERT LEA     FAIR      36  27  69 CALM      30.43S
$$
MNZ078>079-086>088-094>096-210400-
   Southeast Minnesota

CITY           SKY/WX    TMP DP  RH WIND       PRES   REMARKS
ROCHESTER      FAIR      39  26  59 N3        30.43S
RED WING       FAIR      37  25  60 CALM      30.44S
STANTON        FAIR      37  31  79 CALM      30.43S
DODGE CENTER   FAIR      37  25  60 CALM      30.43S
WINONA         FAIR      41  30  65 CALM      30.43S
AUSTIN         FAIR      37  25  60 CALM      30.43R
PRESTON        FAIR      38  22  51 CALM      30.43S
$$
ABBREVIATIONS USED IN REMARKS
   TC - TEMPERATURES IN CELSIUS
  WCI - WIND CHILL INDEX
   HX - HEAT INDEX
  VSB - VISIBILITY
$$




USA.gov is the U.S. government's official web portal to all federal, state and local government web resources and services.